Location: Gradaro
(45.0833°N, 10.8833°E)
Time: 10:27:02
(UTC+00:00)

FENGYUN 1C DEB - Pass Details

Date: 02 July 2021
Orbit: 803 x 830 km, 98.8° (Epoch: 28 July)

Event Time Altitude Azimuth Distance (km) Brightness Sun altitude
Exits shadow 20:24:53 12° 116° (ESE) 2,259 ? -11.1°
Maximum altitude 20:28:50 27° 63° (ENE) 1,522 ? -11.5°
Drops below altitude 10° 20:33:16 10° 7° (N) 2,427 ? -12.0°
Sets 20:35:56 0° 356° (N) 3,368 ? -12.3°
